This is the latest recevied weather packets stored in our database for station/object G4WLC-1. If no packets are shown the sender has not sent any weather packets the latest 10 day(s).
| Time | Temp. | Humidity | Pressure | Rain* | Wind** | Luminosity | Snow |
|---|---|---|---|---|---|---|---|
| 1778249275 | 15.56° C | 81% | 1015.6 hPa | 0.25 mm | - | - | - |
| 1778248975 | 15.56° C | 83% | 1015.6 hPa | 0.25 mm | - | - | - |
| 1778248675 | 15.56° C | 82% | 1015.6 hPa | 0.25 mm | - | - | - |
| 1778248375 | 15.56° C | 80% | 1015.7 hPa | 0.25 mm | - | - | - |
| 1778248075 | 15.56° C | 77% | 1015.7 hPa | 0.25 mm | - | - | - |
| 1778247775 | 15.56° C | 75% | 1015.7 hPa | 0 mm | - | - | - |
| 1778247475 | 15.56° C | 73% | 1015.7 hPa | 0 mm | - | - | - |
| 1778247175 | 15.56° C | 73% | 1015.7 hPa | 0 mm | - | - | - |
| 1778246875 | 16.11° C | 74% | 1015.7 hPa | 0 mm | - | - | - |
| 1778246575 | 16.11° C | 74% | 1015.7 hPa | 0 mm | - | - | - |
| 1778246275 | 16.11° C | 73% | 1015.6 hPa | 0 mm | - | - | - |
| 1778245975 | 16.67° C | 73% | 1015.6 hPa | 0 mm | - | - | - |
| 1778245676 | 16.67° C | 71% | 1015.6 hPa | 0 mm | - | - | - |
| 1778245375 | 16.67° C | 70% | 1015.7 hPa | 0 mm | - | - | - |
| 1778245076 | 17.22° C | 69% | 1015.7 hPa | 0 mm | - | - | - |
| 1778244776 | 17.78° C | 69% | 1015.7 hPa | 0 mm | - | - | - |
| 1778244475 | 17.78° C | 68% | 1015.6 hPa | 0 mm | - | - | - |
| 1778244175 | 17.78° C | 73% | 1015.5 hPa | 0 mm | - | - | - |
| 1778243875 | 17.78° C | 71% | 1015.6 hPa | 0 mm | - | - | - |
| 1778243576 | 17.78° C | 75% | 1015.6 hPa | 0 mm | - | - | - |
| 1778243276 | 17.22° C | 75% | 1015.5 hPa | 0 mm | - | - | - |
| 1778242976 | 17.22° C | 73% | 1015.6 hPa | 0 mm | - | - | - |
| 1778242675 | 17.22° C | 74% | 1015.5 hPa | 0 mm | - | - | - |
| 1778242376 | 16.67° C | 74% | 1015.6 hPa | 0 mm | - | - | - |
| 1778242076 | 16.67° C | 77% | 1015.8 hPa | 0 mm | - | - | - |
* Rain latest hour (hover to see other rain measurements)
** Current wind speed in m/s (hover to see current wind gust speed)